Weather in Sukromlya

Russia / Smolensk Oblast     53°37′23″N   32°56′54″E
temp.,
°C
wind,
m/s
gust,
m/s
humid.,
%
clouds,
%
prec.,
mm/h
press.,
hPa
HPBL,
m
7 march, sun
sun700:00−8wsw412830 0.0 1018378
03:00−7sw5138243 0.0 1015521
06:00−5sw71680100 0.0 1011805
09:00−3wsw91780100 0.0 10061143
12:00−1wsw91790100 0.4 10031210
15:000wsw101890100 0.9 10011411
18:00−1wnw71581100 1.4 10011603
21:00−4w3127896 1.4 1003545
8 march, mon
mon800:00−5wsw413850 0.0 1002515
03:00−5w513841 0.0 1003718
06:00−6w5128862 0.0 1002777
09:00−5wnw5118981 0.4 1004801
12:00−3nw586499 0.3 10061232
15:00−3nw696951 0.4 10081382
18:00−5nw4882100 0.2 10101026
21:00−7nw3893100 0.3 1013466
9 march, tue
tue900:00−9nw379291 0.0 1014291
03:00−11nnw269392 0.0 1016244
06:00−11nnw2692100 0.0 1017302
09:00−11nnw3686100 0.0 1019350
12:00−8nnw357031 0.0 1020735
15:00−7nw466615 0.0 1021996
18:00−8nnw367939 0.0 1021684
21:00−11nnw229033 0.0 102350
10 march, wed
wed1000:00−12nw12928 0.0 102421
03:00−11wsw129054 0.0 102430
06:00−12sw249389 0.0 102496
09:00−10sw378593 0.0 1023299
12:00−5sw4875100 0.0 1023701
15:00−3wsw4772100 0.0 1022964
18:00−4wsw3888100 0.1 1021793
21:00−5sw31087100 0.2 1021398
11 march, thu
thu1100:00−5sw398697 0.0 1021361
03:00−6sw379598 0.6 1021336
06:00−6sw398799 0.3 1020327
09:00−5sw4107498 0.3 1020393
12:00−2sw596296 0.0 1019700
15:00−1ssw596498 0.0 1017871
18:00−2s51180100 0.0 1015894
21:00−3s61383100 0.0 1013790